• In Russia
  • List of Countries
  • For 7 days
  • Water Temperature
  • Weather Map
  • Weather Widgets
  • user-avatar
    Login

    Hourly Weather Herāt

    Today, 23 September, Monday

    Time Temperature Precipitation Wind Pressure Humidity
    00:00 +18°C° 0 mm 7 mps 682 mmHg 62%
    01:00 +17°C° 0 mm 6 mps 682 mmHg 64%
    02:00 +16°C° 0 mm 5 mps 682 mmHg 67%
    03:00 +15°C° 0 mm 5 mps 682 mmHg 70%
    04:00 +14°C° 0 mm 4 mps 681 mmHg 74%
    05:00 +16°C° 0 mm 3 mps 682 mmHg 70%
    06:00 +17°C° 0 mm 3 mps 682 mmHg 66%
    07:00 +17°C° 0 mm 3 mps 682 mmHg 62%
    08:00 +20°C° 0 mm 3 mps 682 mmHg 53%
    09:00 +24°C° 0 mm 3 mps 683 mmHg 44%
    10:00 +27°C° 0 mm 3 mps 683 mmHg 29%
    11:00 +30°C° 0 mm 3 mps 683 mmHg 25%
    12:00 +33°C° 0 mm 4 mps 683 mmHg 21%
    13:00 +35°C° 0 mm 4 mps 682 mmHg 17%
    14:00 +35°C° 0 mm 4 mps 682 mmHg 17%
    15:00 +35°C° 0 mm 5 mps 681 mmHg 17%
    16:00 +34°C° 0 mm 5 mps 681 mmHg 19%
    17:00 +30°C° 0 mm 4 mps 681 mmHg 27%
    18:00 +26°C° 0 mm 4 mps 680 mmHg 35%
    19:00 +21°C° 0 mm 3 mps 680 mmHg 44%
    20:00 +20°C° 0 mm 3 mps 679 mmHg 45%
    21:00 +19°C° 0 mm 2 mps 679 mmHg 47%
    22:00 +18°C° 0 mm 2 mps 679 mmHg 49%
    23:00 +18°C° 0 mm 2 mps 679 mmHg 49%

    Tomorrow, 24 September, Tuesday

    Time Temperature Precipitation Wind Pressure Humidity
    00:00 +18°C° 0 mm 2 mps 679 mmHg 50%
    01:00 +18°C° 0 mm 2 mps 679 mmHg 50%
    02:00 +18°C° 0 mm 1 mps 678 mmHg 52%
    03:00 +18°C° 0 mm 1 mps 678 mmHg 53%
    04:00 +16°C° 0 mm 1 mps 678 mmHg 55%
    05:00 +19°C° 0 mm 1 mps 679 mmHg 47%
    06:00 +19°C° 0 mm 0 mps 679 mmHg 40%
    07:00 +21°C° 0 mm 0 mps 680 mmHg 32%
    08:00 +26°C° 0 mm 1 mps 681 mmHg 26%
    09:00 +29°C° 0 mm 2 mps 681 mmHg 21%
    10:00 +32°C° 0 mm 2 mps 682 mmHg 15%
    11:00 +35°C° 0 mm 3 mps 682 mmHg 13%
    12:00 +37°C° 0 mm 4 mps 681 mmHg 12%
    13:00 +40°C° 0 mm 5 mps 681 mmHg 10%
    14:00 +40°C° 0 mm 6 mps 681 mmHg 11%
    15:00 +39°C° 0 mm 6 mps 680 mmHg 11%
    16:00 +38°C° 0 mm 7 mps 680 mmHg 12%
    17:00 +33°C° 0 mm 6 mps 680 mmHg 19%
    18:00 +28°C° 0 mm 4 mps 679 mmHg 25%
    19:00 +24°C° 0 mm 3 mps 679 mmHg 32%
    20:00 +22°C° 0 mm 3 mps 679 mmHg 32%
    21:00 +22°C° 0 mm 3 mps 679 mmHg 33%
    22:00 +21°C° 0 mm 3 mps 679 mmHg 33%
    23:00 +20°C° 0 mm 3 mps 679 mmHg 35%

    Day after tomorrow, 25 September, Wednesday

    Time Temperature Precipitation Wind Pressure Humidity
    00:00 +19°C° 0 mm 3 mps 678 mmHg 36%
    01:00 +18°C° 0 mm 2 mps 678 mmHg 37%
    02:00 +18°C° 0 mm 2 mps 678 mmHg 39%
    03:00 +17°C° 0 mm 2 mps 678 mmHg 40%
    04:00 +18°C° 0 mm 1 mps 678 mmHg 41%
    05:00 +20°C° 0 mm 1 mps 679 mmHg 37%
    06:00 +22°C° 0 mm 1 mps 679 mmHg 32%
    07:00 +24°C° 0 mm 1 mps 680 mmHg 27%
    08:00 +27°C° 0 mm 1 mps 681 mmHg 23%
    09:00 +30°C° 0 mm 2 mps 681 mmHg 19%
    10:00 +34°C° 0 mm 2 mps 682 mmHg 14%
    11:00 +36°C° 0 mm 3 mps 682 mmHg 12%
    12:00 +37°C° 0 mm 3 mps 681 mmHg 10%
    13:00 +40°C° 0 mm 4 mps 681 mmHg 9%
    14:00 +40°C° 0 mm 4 mps 681 mmHg 8%
    15:00 +40°C° 0 mm 4 mps 681 mmHg 8%
    16:00 +40°C° 0 mm 4 mps 681 mmHg 8%
    17:00 +35°C° 0 mm 4 mps 680 mmHg 13%
    18:00 +30°C° 0 mm 3 mps 680 mmHg 18%
    19:00 +26°C° 0 mm 2 mps 679 mmHg 22%
    20:00 +26°C° 0 mm 2 mps 679 mmHg 21%
    21:00 +25°C° 0 mm 2 mps 679 mmHg 20%
    22:00 +25°C° 0 mm 2 mps 680 mmHg 19%
    23:00 +24°C° 0 mm 2 mps 679 mmHg 22%

    26 September, Thursday

    Time Temperature Precipitation Wind Pressure Humidity
    00:00 +23°C° 0 mm 1 mps 679 mmHg 24%
    01:00 +22°C° 0 mm 1 mps 679 mmHg 27%
    02:00 +22°C° 0 mm 1 mps 679 mmHg 31%
    03:00 +21°C° 0 mm 1 mps 679 mmHg 35%
    04:00 +20°C° 0 mm 1 mps 679 mmHg 39%
    05:00 +22°C° 0 mm 1 mps 680 mmHg 32%
    06:00 +24°C° 0 mm 1 mps 680 mmHg 25%
    07:00 +26°C° 0 mm 1 mps 681 mmHg 17%
    08:00 +30°C° 0 mm 1 mps 682 mmHg 14%
    09:00 +33°C° 0 mm 1 mps 682 mmHg 10%
    10:00 +36°C° 0 mm 1 mps 683 mmHg 7%
    11:00 +39°C° 0 mm 2 mps 683 mmHg 6%
    12:00 +40°C° 0 mm 2 mps 682 mmHg 6%
    13:00 +42°C° 0 mm 3 mps 682 mmHg 5%
    14:00 +42°C° 0 mm 4 mps 682 mmHg 5%
    15:00 +42°C° 0 mm 5 mps 681 mmHg 6%
    16:00 +41°C° 0 mm 5 mps 681 mmHg 7%
    17:00 +36°C° 0 mm 4 mps 680 mmHg 10%
    18:00 +32°C° 0 mm 4 mps 680 mmHg 14%
    19:00 +27°C° 0 mm 3 mps 679 mmHg 18%
    20:00 +27°C° 0 mm 3 mps 679 mmHg 18%
    21:00 +26°C° 0 mm 2 mps 679 mmHg 19%
    22:00 +25°C° 0 mm 2 mps 679 mmHg 19%
    23:00 +24°C° 0 mm 2 mps 679 mmHg 22%

    27 September, Friday

    Time Temperature Precipitation Wind Pressure Humidity
    00:00 +23°C° 0 mm 2 mps 679 mmHg 25%
    01:00 +22°C° 0 mm 1 mps 679 mmHg 28%
    02:00 +22°C° 0 mm 1 mps 679 mmHg 28%
    03:00 +21°C° 0 mm 1 mps 679 mmHg 29%
    04:00 +21°C° 0 mm 1 mps 679 mmHg 29%
    05:00 +23°C° 0 mm 1 mps 679 mmHg 26%
    06:00 +24°C° 0 mm 1 mps 680 mmHg 23%
    07:00 +26°C° 0 mm 1 mps 681 mmHg 19%
    08:00 +29°C° 0 mm 1 mps 681 mmHg 16%
    09:00 +32°C° 0 mm 1 mps 682 mmHg 13%
    10:00 +35°C° 0 mm 1 mps 682 mmHg 9%
    11:00 +38°C° 0 mm 2 mps 682 mmHg 8%
    12:00 +39°C° 0 mm 3 mps 682 mmHg 7%
    13:00 +42°C° 0 mm 3 mps 682 mmHg 6%
    14:00 +41°C° 0 mm 4 mps 681 mmHg 7%
    15:00 +41°C° 0 mm 5 mps 681 mmHg 7%
    16:00 +41°C° 0 mm 5 mps 680 mmHg 8%
    17:00 +36°C° 0 mm 5 mps 680 mmHg 11%
    18:00 +33°C° 0 mm 5 mps 679 mmHg 14%
    19:00 +28°C° 0 mm 4 mps 679 mmHg 17%
    20:00 +27°C° 0 mm 4 mps 679 mmHg 18%
    21:00 +26°C° 0 mm 3 mps 679 mmHg 19%
    22:00 +25°C° 0 mm 3 mps 679 mmHg 20%
    23:00 +24°C° 0 mm 2 mps 678 mmHg 22%

    28 September, Saturday

    Time Temperature Precipitation Wind Pressure Humidity
    00:00 +23°C° 0 mm 2 mps 678 mmHg 23%
    01:00 +23°C° 0 mm 1 mps 678 mmHg 25%
    02:00 +22°C° 0 mm 1 mps 677 mmHg 26%
    03:00 +22°C° 0 mm 1 mps 677 mmHg 27%
    04:00 +21°C° 0 mm 1 mps 677 mmHg 28%
    05:00 +23°C° 0 mm 1 mps 677 mmHg 24%
    06:00 +25°C° 0 mm 1 mps 678 mmHg 20%
    07:00 +27°C° 0 mm 1 mps 678 mmHg 16%
    08:00 +30°C° 0 mm 1 mps 679 mmHg 13%
    09:00 +33°C° 0 mm 1 mps 679 mmHg 11%
    10:00 +36°C° 0 mm 1 mps 680 mmHg 8%
    11:00 +38°C° 0 mm 2 mps 679 mmHg 7%
    12:00 +39°C° 0 mm 2 mps 679 mmHg 6%
    13:00 +40°C° 0 mm 3 mps 679 mmHg 5%
    14:00 +41°C° 0 mm 4 mps 678 mmHg 6%
    15:00 +41°C° 0 mm 5 mps 678 mmHg 6%
    16:00 +40°C° 0 mm 6 mps 677 mmHg 6%
    17:00 +36°C° 0 mm 6 mps 677 mmHg 9%
    18:00 +33°C° 0 mm 5 mps 677 mmHg 11%
    19:00 +29°C° 0 mm 4 mps 676 mmHg 13%
    20:00 +27°C° 0 mm 3 mps 676 mmHg 14%
    21:00 +26°C° 0 mm 3 mps 676 mmHg 15%
    22:00 +24°C° 0 mm 2 mps 676 mmHg 15%
    23:00 +24°C° 0 mm 2 mps 676 mmHg 15%
    Show more